Hanford, WA
on Wednesday, December 12, 2012

Wednesday
Previous Day Next Day
Daily Summary
 ActualAverage (KMWH)Record (KMWH)
Temperature
Mean Temperature °F 29°F  
Max Temperature 36°F 35°F 53°F (1999)
Min Temperature 27°F 23°F 2°F (1985)
Degree Days
Heating Degree Days 34 36  
Month to date heating degree days 419  
Since 1 July heating degree days 1880  
Cooling Degree Days 0 0  
Month to date cooling degree days 0  
Year to date cooling degree days 615  
Moisture
Dew Point 34°F   
Average Humidity 97    
Maximum Humidity 100    
Minimum Humidity 92    
Precipitation
Precipitation 0.00 in 0.04 in 0.31 in (1998)
Month to date precipitation 0.44  
Year to date precipitation 8.11  
Wind
Wind Speed 6 mph   
Max Wind Speed 9 mph   
Max Gust Speed mph   
Visibility 6 miles   
Events Fog   

Key: T is trace of precipitation, MM is missing value
Source: NWS Daily Summary
Time(PST)TemperatureDew PointHumidity Pressure Visibility Wind DirectionWind SpeedGust SpeedPrecipitationEvents Conditions
12:50 AM 34.5°F 32.4°F 92% 29.59 in 15.0 miles NW 9.2 mph - N/A   Overcast
1:50 AM 34.3°F 34.2°F 99% 29.60 in 10.0 miles WNW 8.1 mph - N/A   Overcast
2:50 AM 34.7°F 34.5°F 99% 29.61 in 12.0 miles WNW 6.9 mph - N/A   Overcast
3:50 AM 35.1°F 34.9°F 99% 29.65 in 12.0 miles WNW 4.6 mph - N/A   Overcast
4:50 AM 34.3°F 34.2°F 99% 29.65 in 8.0 miles SW 2.3 mph - N/A   Overcast
6:50 AM 31.3°F 31.3°F 100% 29.70 in 3.0 miles SSE 4.6 mph - N/A   Overcast
7:50 AM 33.6°F 33.6°F 100% 29.72 in 0.1 miles ESE 3.5 mph - N/A Fog Fog
8:50 AM 35.2°F 35.2°F 100% 29.75 in 0.1 miles SE 3.5 mph - N/A Fog Fog
9:50 AM 36.0°F 36.0°F 100% 29.78 in 0.2 miles East 3.5 mph - N/A Fog Fog
10:50 AM 36.5°F 35.4°F 96% 29.80 in 3.0 miles ESE 2.3 mph - N/A   Overcast
11:50 AM 36.5°F 35.4°F 96% 29.82 in 0.5 miles WNW 3.5 mph - N/A Fog Fog
12:50 PM 36.5°F 35.2°F 95% 29.83 in 3.0 miles NW 4.6 mph - N/A   Overcast
1:50 PM 36.0°F 34.3°F 94% 29.85 in 10.0 miles NW 4.6 mph - N/A   Overcast
2:50 PM 36.0°F 34.5°F 94% 29.86 in 10.0 miles NNW 4.6 mph - N/A   Overcast
3:50 PM 35.1°F 34.3°F 97% 29.89 in 3.0 miles West 4.6 mph - N/A   Mist
4:50 PM 34.5°F 34.0°F 98% 29.92 in 6.0 miles WSW 6.9 mph - N/A   Overcast
5:50 PM 34.5°F 32.5°F 92% 29.93 in 15.0 miles SSW 6.9 mph - N/A   Overcast
6:50 PM 34.7°F 32.5°F 92% 29.94 in 15.0 miles SSW 5.8 mph - N/A   Overcast
10:50 PM 27.9°F 27.9°F 100% 30.01 in 0.8 miles WSW 4.6 mph - N/A   Clear
11:50 PM 28.0°F 28.0°F 100% 30.02 in 0.5 miles SW 3.5 mph - N/A Fog Light Freezing Fog
Moon Phase
Dec. 12 Dec. 13 Dec. 20 Dec. 28 Jan. 04
Sunrise:07:33 AM (PST) Moon Rise:06:42 AM (PST)12/12
Sunset:04:11 PM (PST) Moon Set:03:54 PM (PST)12/12

Copyright © 2014 The Weather Underground, Inc.